Location: ČR
(50.0000°N, 15.0000°E)
Time: 10:35:26
(UTC+02:00)

A-11 Canister half - Pass Details

Date: 22 March 2026
Orbit: 1514 x 1685 km, 47.2° (Epoch: 16 April)

Event Time Altitude Azimuth Distance (km) Brightness Sun altitude
Rises 19:33:12 0° 289° (WNW) 4,932 13.8 -13.0°
Reaches altitude 10° 19:37:17 10° 275° (W) 3,949 12.5 -13.6°
Maximum altitude 19:44:22 22° 230° (SW) 3,087 10.9 -14.7°
Drops below altitude 10° 19:51:26 10° 185° (S) 3,922 11.0 -15.8°
Sets 19:55:31 0° 171° (S) 4,889 11.3 -16.4°
